Regional Weather Roundup
Issued by NWS

Home | Current Version | Previous Version | Graphics & Text | Print | Product List | Glossary On
Versions: 1 2 3 4 5 6 7 8 9 10 11 12 13 14 15 16 17 18 19 20 21 22 23 24 25 26 27 28 29 30 31 32 33 34 35 36 37 38 39 40 41 42 43 44 45 46 47 48 49 50
000
ASUS43 KMKX 181821
RWRWI

WISCONSIN REGIONAL WEATHER ROUNDUP
NATIONAL WEATHER SERVICE MILWAUKEE/SULLIVAN WI
100 PM CDT THU SEP 18 2014

NOTE: "FAIR" INDICATES FEW OR NO CLOUDS BELOW 12,000 FEET WITH NO
SIGNIFICANT WEATHER AND/OR OBSTRUCTIONS TO VISIBILITY.

WIZ001-002-006>008-014>016-023>028-181900-
NORTHWEST WISCONSIN

CITY           SKY/WX    TMP DP  RH WIND       PRES   REMARKS
SUPERIOR ARPT  CLOUDY    49  43  79 NE6       30.16S
6HR MIN TEMP:  42; 6HR MAX TEMP:  49;

ASHLAND        CLOUDY    50  44  80 N5        30.17F
6HR MIN TEMP:  42; 6HR MAX TEMP:  50;

HAYWARD        CLOUDY    52  48  86 SE8       30.14F
6HR MIN TEMP:  45; 6HR MAX TEMP:  52;

SIREN          NOT AVBL
RICE LAKE      CLOUDY    52  47  83 SE10      30.16F
6HR MIN TEMP:  47; 6HR MAX TEMP:  52;

LADYSMITH      CLOUDY    52  47  84 SE6       30.18S
6HR MIN TEMP:  47; 6HR MAX TEMP:  52;

EAU CLAIRE     NOT AVBL
MENOMONIE      CLOUDY    59  52  77 E8        30.14F
6HR MIN TEMP:  49; 6HR MAX TEMP:  59;

NEW RICHMOND   NOT AVBL
OSCEOLA        PTSUNNY   61  56  84 SE6       30.13F
6HR MIN TEMP:  48; 6HR MAX TEMP:  61;

$$

WIZ003>005-009-010-017-018-181900-
NORTH CENTRAL WISCONSIN

CITY           SKY/WX    TMP DP  RH WIND       PRES   REMARKS
WOODRUFF       CLOUDY    49  44  81 S6        30.18S
6HR MIN TEMP:  42; 6HR MAX TEMP:  49;

RHINELANDER    CLOUDY    47  40  76 S5        30.19F
6HR MIN TEMP:  38; 6HR MAX TEMP:  47;

EAGLE RIVER    CLOUDY    50  39  66 SE7       30.17F
6HR MIN TEMP:  37; 6HR MAX TEMP:  50;

LAND O LAKES   CLOUDY    51  40  65 S6        30.18F
6HR MIN TEMP:  38; 6HR MAX TEMP:  51;

PHILLIPS       CLOUDY    49  45  87 SE7       30.16S
6HR MIN TEMP:  44; 6HR MAX TEMP:  49;

TOMAHAWK       NOT AVBL
MEDFORD        CLOUDY    48  44  87 SE6       30.17F
6HR MIN TEMP:  43; 6HR MAX TEMP:  48;

MERRILL        CLOUDY    47  42  81 CALM      30.19F
6HR MIN TEMP:  42; 6HR MAX TEMP:  47;

$$

WIZ029-030-035-036-043>047-181900-
CENTRAL WISCONSIN

CITY           SKY/WX    TMP DP  RH WIND       PRES   REMARKS
WAUSAU         CLOUDY    49  42  77 VRB5      30.19F
6HR MIN TEMP:  42; 6HR MAX TEMP:  50;

MOSINEE        CLOUDY    48  45  87 E3        30.20F
MARSHFIELD     CLOUDY    50  46  86 SE6       30.18F
6HR MIN TEMP:  44; 6HR MAX TEMP:  51;

STEVENS POINT  NOT AVBL
WAUPACA        CLOUDY    54  46  74 SE5       30.21F
6HR MIN TEMP:  46; 6HR MAX TEMP:  54;

WAUTOMA        CLOUDY    53  46  77 SE6       30.21S
6HR MIN TEMP:  47; 6HR MAX TEMP:  53;

WISC RAPIDS    CLOUDY    51  45  79 E6        30.21S
6HR MIN TEMP:  45; 6HR MAX TEMP:  51;

CAMP DOUGLAS   NOT AVBL
$$

WIZ011>013-019>022-031-037>040-048>050-181900-
NORTHEAST WISCONSIN

CITY           SKY/WX    TMP DP  RH WIND       PRES   REMARKS
ANTIGO         CLOUDY    49  41  76 S6        30.20S
6HR MIN TEMP:  38; 6HR MAX TEMP:  49;

STURGEON BAY   CLOUDY    54  43  66 NE6       30.22S
6HR MIN TEMP:  43; 6HR MAX TEMP:  54;

GREEN BAY      CLOUDY    54  45  71 CALM      30.22S
6HR MIN TEMP:  44; 6HR MAX TEMP:  55;

MANITOWOC      CLOUDY    55  47  74 VRB3      30.21S
6HR MIN TEMP:  46; 6HR MAX TEMP:  55;

APPLETON       CLOUDY    52  43  71 VRB5      30.22S
CLINTONVILLE   CLOUDY    50  41  71 SE3       30.22S
OSHKOSH        CLOUDY    54  47  77 E8        30.20F
6HR MIN TEMP:  48; 6HR MAX TEMP:  54;

$$

WIZ032>034-041-042-053>061-181900-
SOUTHWEST WISCONSIN

CITY           SKY/WX    TMP DP  RH WIND       PRES   REMARKS
LA CROSSE      SUNNY     64  54  69 VRB5      30.13F
6HR MIN TEMP:  51; 6HR MAX TEMP:  65;

SPARTA         CLOUDY    58  50  76 SE6       30.17S
VIROQUA        CLOUDY    60  55  84 E8        30.15F
6HR MIN TEMP:  47; 6HR MAX TEMP:  60;

BOSCOBEL       MOSUNNY   63  53  70 VRB7      30.15F
6HR MIN TEMP:  51; 6HR MAX TEMP:  63;

PRAIRIE DU CHI SUNNY     66  53  62 CALM      30.12F
6HR MIN TEMP:  47; 6HR MAX TEMP:  66;

PLATTEVILLE    FAIR      66  54  66 CALM      30.15S
6HR MIN TEMP:  50; 6HR MAX TEMP:  66;

$$

WIZ056-057-062-063-064-067-068-181900-
SOUTH CENTRAL WISCONSIN

CITY           SKY/WX    TMP DP  RH WIND       PRES   REMARKS
BARABOO/DELLS  CLOUDY    53  49  84 E6        30.18F
6HR MIN TEMP:  48; 6HR MAX TEMP:  53;

LONE ROCK      CLOUDY    61  51  70 VRB6      30.17F
6HR MIN TEMP:  54; 6HR MAX TEMP:  61;

WATERTOWN      CLOUDY    56  52  88 NE3       30.19S
6HR MIN TEMP:  48; 6HR MAX TEMP:  56;

MADISON        CLOUDY    55  50  83 SE5       30.19S
6HR MIN TEMP:  49; 6HR MAX TEMP:  55;

MIDDLETON      CLOUDY    57  53  86 E3        30.18F
6HR MIN TEMP:  51; 6HR MAX TEMP:  57;

MONROE         MOSUNNY   59  54  82 NE7       30.16F
JANESVILLE     PTSUNNY   61  54  77 E6        30.17F
$$

WIZ051-052-058>065-066-070>072-181900-
SOUTHEAST WISCONSIN

CITY           SKY/WX    TMP DP  RH WIND       PRES   REMARKS
MILWAUKEE      CLOUDY    57  50  77 NE10      30.20R
6HR MIN TEMP:  52; 6HR MAX TEMP:  57;

WAUKESHA       CLOUDY    57  52  82 SE5       30.20S
MILWAUKEE/TIMM CLOUDY    57  48  72 E6        30.20S
RACINE         CLOUDY    59  52  77 N13       30.19F
6HR MIN TEMP:  54; 6HR MAX TEMP:  60;

BURLINGTON     CLOUDY    60  52  75 NE6       30.17F
6HR MIN TEMP:  50; 6HR MAX TEMP:  60;

KENOSHA        CLOUDY    62  54  74 NE8       30.18S
6HR MIN TEMP:  54; 6HR MAX TEMP:  62;

FOND DU LAC    CLOUDY    55  47  74 N6        30.20F
6HR MIN TEMP:  46; 6HR MAX TEMP:  56;

SHEBOYGAN      CLOUDY    57  47  69 VRB5      30.20S
6HR MIN TEMP:  47; 6HR MAX TEMP:  58;

WEST BEND      CLOUDY    55  46  71 NE3       30.20S
JUNEAU         CLOUDY    55  49  82 S3        30.21S
6HR MIN TEMP:  46; 6HR MAX TEMP:  55;

$$

LSZ147-162-181900-
LAKE SUPERIOR

STATION/POSITION TIME  TEMP    WIND        PRES    WAVE
                       AIR SEA DIR/SP/G            HT/PER
                 (UTC) (F)     (DEG/KT/KT) (MB)    (FT/S)
W MID LAKE BUOY  1750   44 47  120/ 10/ 12 1023.0F   2/ 3
DEVILS ISLAND    1800   45     100/  9/ 11 1022.7F
PORT WING        1700   50      20/ 13/ 14 1021.7F
SAXON HARBOR     1740   48      30/  4/  6 1022.0F
$$

LMZ867-665-643>646-181900-
LAKE MICHIGAN

STATION/POSITION TIME  TEMP    WIND        PRES    WAVE
                       AIR SEA DIR/SP/G            HT/PER
                 (UTC) (F)     (DEG/KT/KT) (MB)    (FT/S)
N MID LAKE BUOY  1750   51 59   60/  6/  8 1023.7S   1/ 3
NORTHPORT PIER   1700   51     100/  3/  7 1023.7R
KEWAUNEE LAKESHO 1700   52      40/  7/  9 1022.1S
SHEBOYGAN LAKESH 1800   50 48   10/  9/ 10 1023.3S
PORT WASHINGTON  1740   56      50/  8/ 10 1023.0S
ATWATER BUOY     1800   56      10/ 10/ 14 1023.2R
MILWAUKEE LAKESH 1800   55      30/ 11/ 13   N/A
S MID LAKE BUOY  1750   63 64   CALM  /  2 1021.4S   3/ 6
KENOSHA   LAKESH 1800   57      20/ 12/ 13 1021.7S
$$

TC  - TEMPERATURE IN CELSIUS
VSB - VISIBILITY IN STATUTE MILES
WCI - WIND CHILL INDEX
HX  - HEAT INDEX




USA.gov is the U.S. government's official web portal to all federal, state and local government web resources and services.